EDT,Max TemperatureF,Mean TemperatureF,Min TemperatureF,Max Dew PointF,MeanDew PointF,Min DewpointF,Max Humidity, Mean Humidity, Min Humidity, Max Sea Level PressureIn, Mean Sea Level PressureIn, Min Sea Level PressureIn, Max VisibilityMiles, Mean VisibilityMiles, Min VisibilityMiles, Max Wind SpeedMPH, Mean Wind SpeedMPH, Max Gust SpeedMPH,PrecipitationIn, CloudCover, Events, WindDirDegrees
2013-10-1,76,59,41,53,47,39,96,65,33,30.00,29.91,29.83,10,10,10,12,2,15,0.00,0,,331
2013-10-2,75,63,50,57,51,45,96,67,38,29.85,29.78,29.70,10,10,6,16,5,25,0.00,1,,277
2013-10-3,71,59,46,46,42,37,86,59,31,30.04,29.97,29.86,10,10,10,18,6,25,0.00,0,,294
2013-10-4,67,54,40,44,40,35,93,63,32,30.13,30.07,30.03,10,10,10,16,4,23,0.00,0,,308
2013-10-5,63,50,37,43,38,34,92,66,39,30.22,30.15,30.09,10,10,10,8,1,13,0.00,2,,315
2013-10-6,60,48,35,44,35,29,93,63,33,30.33,30.27,30.23,10,10,10,8,2,14,0.06,2,Rain,127
2013-10-7,68,57,45,64,53,43,100,94,87,30.25,30.01,29.74,10,4,1,17,5,36,0.58,8,Rain,152
2013-10-8,57,48,39,57,41,33,93,67,40,30.39,30.08,29.78,10,10,3,20,8,33,0.01,3,Rain,288
2013-10-9,64,49,33,43,37,32,100,70,39,30.50,30.42,30.34,10,8,0,8,1,13,0.00,0,Fog,247
2013-10-10,71,55,38,46,41,36,92,63,33,30.34,30.27,30.20,10,10,8,7,1,12,0.00,0,,140
2013-10-11,74,57,39,56,47,37,96,70,44,30.26,30.20,30.16,10,10,10,9,1,12,0.00,0,,65
2013-10-12,56,50,43,51,45,42,93,77,61,30.45,30.40,30.28,10,10,7,9,2,13,T,7,Rain,75
2013-10-13,62,52,41,47,43,39,100,78,55,30.49,30.44,30.37,10,5,0,7,1,14,0.00,3,Fog,190
2013-10-14,57,49,40,53,47,37,96,84,72,30.37,30.29,30.23,10,8,1,7,1,12,0.01,7,Rain,113
2013-10-15,65,55,44,52,47,43,100,74,48,30.32,30.27,30.22,10,7,1,7,2,10,0.00,3,,318
2013-10-16,61,55,48,54,51,46,100,80,60,30.23,30.07,29.91,10,7,2,10,3,17,0.02,7,,134
2013-10-17,67,55,43,54,51,42,100,74,48,29.88,29.81,29.75,10,8,2,12,2,18,0.03,6,Rain,243
2013-10-18,59,51,43,52,48,41,93,80,66,29.78,29.66,29.60,10,7,1,13,4,21,0.28,7,Rain,323
2013-10-19,61,52,43,44,41,37,83,65,46,29.88,29.84,29.78,10,10,10,14,5,23,T,1,,243
2013-10-20,59,53,46,48,40,25,89,59,28,29.88,29.72,29.65,10,9,6,20,8,31,0.02,6,Rain,250
2013-10-21,57,49,40,38,31,26,85,58,30,30.04,29.99,29.89,10,10,10,16,5,25,0.00,1,,288
2013-10-22,57,47,37,52,44,38,96,79,62,29.98,29.80,29.67,10,9,2,20,3,25,0.10,7,Rain,288
2013-10-23,50,41,31,35,32,30,100,75,50,29.76,29.71,29.62,10,5,0,8,1,12,0.00,2,Fog,300
2013-10-24,44,37,29,31,27,21,92,68,43,29.72,29.64,29.59,10,10,8,22,7,35,0.00,5,,270
2013-10-25,47,41,35,30,29,27,70,58,45,30.02,29.90,29.74,10,10,10,22,9,29,0.00,4,,287
2013-10-26,45,37,29,37,30,24,92,71,49,30.07,29.97,29.85,10,10,5,10,3,18,0.04,5,Rain,248
2013-10-27,49,44,38,39,35,28,92,74,56,29.93,29.83,29.77,10,10,10,16,3,29,T,7,Rain,279
2013-10-28,48,40,31,34,29,25,89,71,53,30.33,30.08,29.94,10,10,8,21,6,31,0.01,3,Rain-Snow,284
2013-10-29,41,32,23,24,22,19,88,66,44,30.44,30.40,30.34,10,10,4,14,5,20,0.00,0,,299
2013-10-30,46,34,21,28,20,16,92,62,31,30.36,30.24,30.14,10,10,5,13,2,21,0.00,1,,276
2013-10-31,51,38,24,49,36,22,93,73,53,30.24,30.01,29.74,10,9,4,9,3,15,0.30,5,Rain,142